EA4LT-13 Weather Reports


Display with metric or nautical units.
time (UTC)temp
F
wind
direction
speed
MPH
gust
MPH
rain 1hr
in
rain 24hr
in
rain mn
in
humidity
%
barometer
mb
20260503022540 55 292 0.0 1.0 0.00 0.00 0.00 91 1012.5
20260503021042 55 292 0.0 2.0 0.00 0.00 0.00 92 1012.4
20260503015542 55 292 1.0 4.0 0.00 0.00 0.00 92 1012.5
20260503014042 55 315 3.0 4.0 0.00 0.00 0.00 92 1012.7
20260503012541 55 270 0.0 3.0 0.00 0.00 0.00 92 1012.6
20260503011041 55 292 1.0 4.0 0.00 0.00 0.00 90 1012.7
20260503005541 56 338 3.0 6.0 0.00 0.00 0.00 89 1013.0
20260503004040 57 338 3.0 12.0 0.00 0.00 0.00 88 1013.0
20260503002539 57 315 5.0 10.0 0.00 0.00 0.00 88 1013.2
20260503001041 57 292 3.0 8.0 0.00 0.00 0.00 88 1013.3
20260502235540 57 292 3.0 4.0 0.00 0.00 0.00 87 1013.3
20260502234041 57 292 2.0 4.0 0.00 0.00 0.00 86 1013.2
20260502232539 57 292 2.0 4.0 0.00 0.00 0.00 86 1013.4
20260502231039 58 315 3.0 6.0 0.00 0.00 0.00 85 1013.5
20260502225539 58 315 4.0 8.0 0.00 0.00 0.00 85 1013.3
20260502224040 58 292 4.0 6.0 0.00 0.00 0.00 84 1013.4
20260502222539 59 315 4.0 8.0 0.00 0.00 0.00 83 1013.4
20260502221039 59 315 3.0 6.0 0.00 0.00 0.00 82 1013.2
20260502215539 59 315 3.0 6.0 0.00 0.00 0.00 82 1013.3
20260502214039 59 338 2.0 4.0 0.00 0.00 0.00 82 1013.5
20260502212540 59 292 2.0 4.0 0.00 0.00 0.00 80 1013.4
20260502211039 59 315 2.0 3.0 0.00 0.00 0.00 79 1013.4
20260502205804 60 292 1.0 2.0 0.00 0.00 0.00 78 1013.2